Year,Month,Day,Hour,Minute,Value (Times are PST for temperature in C)
2014,01,09,00,00,6.50
2014,01,09,00,01,6.40
2014,01,09,00,02,6.40
2014,01,09,00,03,6.40
2014,01,09,00,04,6.40
2014,01,09,00,05,6.40
2014,01,09,00,06,6.40
2014,01,09,00,07,6.50
2014,01,09,00,08,6.50
2014,01,09,00,09,6.50
2014,01,09,00,10,6.50
2014,01,09,00,11,6.50
2014,01,09,00,12,6.50
2014,01,09,00,13,6.50
2014,01,09,00,14,6.50
2014,01,09,00,15,6.50
2014,01,09,00,16,6.50
2014,01,09,00,17,6.50
2014,01,09,00,18,6.40
2014,01,09,00,19,6.40
2014,01,09,00,20,6.40
2014,01,09,00,21,6.40
2014,01,09,00,22,6.40
2014,01,09,00,23,6.40
2014,01,09,00,24,6.40
2014,01,09,00,25,6.40
2014,01,09,00,26,6.40
2014,01,09,00,27,6.40
2014,01,09,00,28,6.40
2014,01,09,00,29,6.40
2014,01,09,00,30,6.40
2014,01,09,00,31,6.40
2014,01,09,00,32,6.30
2014,01,09,00,33,6.30
2014,01,09,00,34,6.30
2014,01,09,00,35,6.30
2014,01,09,00,36,6.30
2014,01,09,00,37,6.30
2014,01,09,00,38,6.30
2014,01,09,00,39,6.20
2014,01,09,00,40,6.20
2014,01,09,00,41,6.30
2014,01,09,00,42,6.30
2014,01,09,00,43,6.30
2014,01,09,00,44,6.30
2014,01,09,00,45,6.20
2014,01,09,00,46,6.20
2014,01,09,00,47,6.20
2014,01,09,00,48,6.20
2014,01,09,00,49,6.20
2014,01,09,00,50,6.20
2014,01,09,00,51,6.20
2014,01,09,00,52,6.10
2014,01,09,00,53,6.10
2014,01,09,00,54,6.10
2014,01,09,00,55,6.20
2014,01,09,00,56,6.20
2014,01,09,00,57,6.20
2014,01,09,00,58,6.20
2014,01,09,00,59,6.10
2014,01,09,01,00,6.10
2014,01,09,01,01,6.10
2014,01,09,01,02,6.10
2014,01,09,01,03,6.10
2014,01,09,01,04,6.10
2014,01,09,01,05,6.10
2014,01,09,01,06,6.10
2014,01,09,01,07,6.10
2014,01,09,01,08,6.10
2014,01,09,01,09,6.10
2014,01,09,01,10,6.10
2014,01,09,01,11,6.10
2014,01,09,01,12,6.10
2014,01,09,01,13,6.10
2014,01,09,01,14,6.00
2014,01,09,01,15,6.00
2014,01,09,01,16,6.00
2014,01,09,01,17,5.90
2014,01,09,01,18,5.90
2014,01,09,01,19,5.90
2014,01,09,01,20,5.90
2014,01,09,01,21,5.90
2014,01,09,01,22,5.90
2014,01,09,01,23,5.90
2014,01,09,01,24,5.90
2014,01,09,01,25,5.90
2014,01,09,01,26,5.90
2014,01,09,01,27,5.80
2014,01,09,01,28,5.90
2014,01,09,01,29,5.90
2014,01,09,01,30,5.90
2014,01,09,01,31,5.90
2014,01,09,01,32,5.90
2014,01,09,01,33,5.90
2014,01,09,01,34,5.90
2014,01,09,01,35,5.90
2014,01,09,01,36,5.90
2014,01,09,01,37,5.90
2014,01,09,01,38,5.90
2014,01,09,01,39,5.90
2014,01,09,01,40,5.90
2014,01,09,01,41,5.90
2014,01,09,01,42,5.90
2014,01,09,01,43,5.90
2014,01,09,01,44,5.90
2014,01,09,01,45,5.90
2014,01,09,01,46,5.90
2014,01,09,01,47,5.90
2014,01,09,01,48,5.90
2014,01,09,01,49,5.90
2014,01,09,01,50,5.90
2014,01,09,01,51,5.90
2014,01,09,01,52,6.00
2014,01,09,01,53,6.00
2014,01,09,01,54,6.00
2014,01,09,01,55,6.00
2014,01,09,01,56,6.00
2014,01,09,01,57,6.00
2014,01,09,01,58,5.90
2014,01,09,01,59,5.90
2014,01,09,02,00,5.90
2014,01,09,02,01,5.90
2014,01,09,02,02,5.90
2014,01,09,02,03,5.90
2014,01,09,02,04,5.90
2014,01,09,02,05,5.90
2014,01,09,02,06,5.80
2014,01,09,02,07,5.90
2014,01,09,02,08,5.90
2014,01,09,02,09,5.90
2014,01,09,02,10,5.90
2014,01,09,02,11,5.90
2014,01,09,02,12,5.90
2014,01,09,02,13,5.90
2014,01,09,02,14,5.90
2014,01,09,02,15,5.90
2014,01,09,02,16,5.90
2014,01,09,02,17,5.90
2014,01,09,02,18,5.90
2014,01,09,02,19,6.00
2014,01,09,02,20,5.90
2014,01,09,02,21,6.00
2014,01,09,02,22,6.00
2014,01,09,02,23,6.00
2014,01,09,02,24,6.00
2014,01,09,02,25,6.00
2014,01,09,02,26,6.00
2014,01,09,02,27,6.00
2014,01,09,02,28,6.10
2014,01,09,02,29,6.10
2014,01,09,02,30,6.10
2014,01,09,02,31,6.10
2014,01,09,02,32,6.10
2014,01,09,02,33,6.00
2014,01,09,02,34,6.00
2014,01,09,02,35,6.00
2014,01,09,02,36,6.00
2014,01,09,02,37,6.00
2014,01,09,02,38,6.00
2014,01,09,02,39,6.00
2014,01,09,02,40,6.00
2014,01,09,02,41,6.10
2014,01,09,02,42,6.10
2014,01,09,02,43,6.10
2014,01,09,02,44,6.10
2014,01,09,02,45,6.10
2014,01,09,02,46,6.00
2014,01,09,02,47,6.00
2014,01,09,02,48,6.00
2014,01,09,02,49,5.90
2014,01,09,02,50,5.90
2014,01,09,02,51,5.90
2014,01,09,02,52,5.90
2014,01,09,02,53,5.90
2014,01,09,02,54,5.90
2014,01,09,02,55,5.90
2014,01,09,02,56,5.80
2014,01,09,02,57,5.80
2014,01,09,02,58,5.80
2014,01,09,02,59,5.80
2014,01,09,03,00,5.70
2014,01,09,03,01,5.70
2014,01,09,03,02,5.70
2014,01,09,03,03,5.70
2014,01,09,03,04,5.70
2014,01,09,03,05,5.80
2014,01,09,03,06,5.70
2014,01,09,03,07,5.80
2014,01,09,03,08,5.80
2014,01,09,03,09,5.70
2014,01,09,03,10,5.70
2014,01,09,03,11,5.70
2014,01,09,03,12,5.70
2014,01,09,03,13,5.70
2014,01,09,03,14,5.70
2014,01,09,03,15,5.70
2014,01,09,03,16,5.70
2014,01,09,03,17,5.60
2014,01,09,03,18,5.60
2014,01,09,03,19,5.60
2014,01,09,03,20,5.60
2014,01,09,03,21,5.50
2014,01,09,03,22,5.50
2014,01,09,03,23,5.50
2014,01,09,03,24,5.40
2014,01,09,03,25,5.40
2014,01,09,03,26,5.30
2014,01,09,03,27,5.30
2014,01,09,03,28,5.30
2014,01,09,03,29,5.20
2014,01,09,03,30,5.20
2014,01,09,03,31,5.20
2014,01,09,03,32,5.20
2014,01,09,03,33,5.20
2014,01,09,03,34,5.10
2014,01,09,03,35,5.10
2014,01,09,03,36,5.10
2014,01,09,03,37,5.20
2014,01,09,03,38,5.20
2014,01,09,03,39,5.20
2014,01,09,03,40,5.30
2014,01,09,03,41,5.30
2014,01,09,03,42,5.30
2014,01,09,03,43,5.40
2014,01,09,03,44,5.40
2014,01,09,03,45,5.40
2014,01,09,03,46,5.50
2014,01,09,03,47,5.50
2014,01,09,03,48,5.50
2014,01,09,03,49,5.50
2014,01,09,03,50,5.40
2014,01,09,03,51,5.40
2014,01,09,03,52,5.40
2014,01,09,03,53,5.40
2014,01,09,03,54,5.40
2014,01,09,03,55,5.40
2014,01,09,03,56,5.30
2014,01,09,03,57,5.30
2014,01,09,03,58,5.30
2014,01,09,03,59,5.20
2014,01,09,04,00,5.20
2014,01,09,04,01,5.20
2014,01,09,04,02,5.20
2014,01,09,04,03,5.20
2014,01,09,04,04,5.10
2014,01,09,04,05,5.10
2014,01,09,04,06,5.10
2014,01,09,04,07,5.10
2014,01,09,04,08,5.10
2014,01,09,04,09,5.10
2014,01,09,04,10,5.00
2014,01,09,04,11,5.00
2014,01,09,04,12,4.90
2014,01,09,04,13,4.90
2014,01,09,04,14,4.90
2014,01,09,04,15,4.90
2014,01,09,04,16,4.90
2014,01,09,04,17,4.80
2014,01,09,04,18,4.80
2014,01,09,04,19,4.80
2014,01,09,04,20,4.80
2014,01,09,04,21,4.70
2014,01,09,04,22,4.70
2014,01,09,04,23,4.70
2014,01,09,04,24,4.70
2014,01,09,04,25,4.80
2014,01,09,04,26,4.80
2014,01,09,04,27,4.80
2014,01,09,04,28,4.80
2014,01,09,04,29,4.80
2014,01,09,04,30,4.80
2014,01,09,04,31,4.80
2014,01,09,04,32,4.80
2014,01,09,04,33,4.80
2014,01,09,04,34,4.80
2014,01,09,04,35,4.80
2014,01,09,04,36,4.90
2014,01,09,04,37,4.90
2014,01,09,04,38,4.90
2014,01,09,04,39,4.90
2014,01,09,04,40,4.90
2014,01,09,04,41,4.90
2014,01,09,04,42,4.90
2014,01,09,04,43,4.90
2014,01,09,04,44,4.90
2014,01,09,04,45,4.90
2014,01,09,04,46,4.90
2014,01,09,04,47,4.90
2014,01,09,04,48,4.90
2014,01,09,04,49,4.90
2014,01,09,04,50,4.90
2014,01,09,04,51,4.90
2014,01,09,04,52,5.00
2014,01,09,04,53,5.00
2014,01,09,04,54,5.00
2014,01,09,04,55,5.10
2014,01,09,04,56,5.10
2014,01,09,04,57,5.10
2014,01,09,04,58,5.10
2014,01,09,04,59,5.10
2014,01,09,05,00,5.10
2014,01,09,05,01,5.10
2014,01,09,05,02,5.10
2014,01,09,05,03,5.10
2014,01,09,05,04,5.10
2014,01,09,05,05,5.10
2014,01,09,05,06,5.10
2014,01,09,05,07,5.10
2014,01,09,05,08,5.10
2014,01,09,05,09,5.20
2014,01,09,05,10,5.20
2014,01,09,05,11,5.20
2014,01,09,05,12,5.20
2014,01,09,05,13,5.20
2014,01,09,05,14,5.20
2014,01,09,05,15,5.30
2014,01,09,05,16,5.30
2014,01,09,05,17,5.30
2014,01,09,05,18,5.20
2014,01,09,05,19,5.20
2014,01,09,05,20,5.20
2014,01,09,05,21,5.20
2014,01,09,05,22,5.30
2014,01,09,05,23,5.20
2014,01,09,05,24,5.20
2014,01,09,05,25,5.20
2014,01,09,05,26,5.20
2014,01,09,05,27,5.20
2014,01,09,05,28,5.20
2014,01,09,05,29,5.20
2014,01,09,05,30,5.20
2014,01,09,05,31,5.20
2014,01,09,05,32,5.10
2014,01,09,05,33,5.10
2014,01,09,05,34,5.10
2014,01,09,05,35,5.10
2014,01,09,05,36,5.00
2014,01,09,05,37,5.00
2014,01,09,05,38,5.00
2014,01,09,05,39,5.00
2014,01,09,05,40,5.00
2014,01,09,05,41,5.00
2014,01,09,05,42,5.00
2014,01,09,05,43,5.10
2014,01,09,05,44,5.10
2014,01,09,05,45,5.10
2014,01,09,05,46,5.10
2014,01,09,05,47,5.10
2014,01,09,05,48,5.10
2014,01,09,05,49,5.00
2014,01,09,05,50,5.00
2014,01,09,05,51,4.90
2014,01,09,05,52,4.80
2014,01,09,05,53,4.70
2014,01,09,05,54,4.60
2014,01,09,05,55,4.50
2014,01,09,05,56,4.30
2014,01,09,05,57,4.20
2014,01,09,05,58,4.10
2014,01,09,05,59,4.00
2014,01,09,06,00,3.90
2014,01,09,06,01,3.80
2014,01,09,06,02,3.70
2014,01,09,06,03,3.60
2014,01,09,06,04,3.50
2014,01,09,06,05,3.50
2014,01,09,06,06,3.40
2014,01,09,06,07,3.40
2014,01,09,06,08,3.30
2014,01,09,06,09,3.30
2014,01,09,06,10,3.30
2014,01,09,06,11,3.30
2014,01,09,06,12,3.30
2014,01,09,06,13,3.30
2014,01,09,06,14,3.30
2014,01,09,06,15,3.30
2014,01,09,06,16,3.30
2014,01,09,06,17,3.20
2014,01,09,06,18,3.20
2014,01,09,06,19,3.20
2014,01,09,06,20,3.20
2014,01,09,06,21,3.20
2014,01,09,06,22,3.10
2014,01,09,06,23,3.10
2014,01,09,06,24,3.10
2014,01,09,06,25,3.10
2014,01,09,06,26,3.10
2014,01,09,06,27,3.10
2014,01,09,06,28,3.20
2014,01,09,06,29,3.20
2014,01,09,06,30,3.20
2014,01,09,06,31,3.20
2014,01,09,06,32,3.10
2014,01,09,06,33,3.10
2014,01,09,06,34,3.20
2014,01,09,06,35,3.20
2014,01,09,06,36,3.30
2014,01,09,06,37,3.30
2014,01,09,06,38,3.30
2014,01,09,06,39,3.30
2014,01,09,06,40,3.30
2014,01,09,06,41,3.30
2014,01,09,06,42,3.30
2014,01,09,06,43,3.30
2014,01,09,06,44,3.30
2014,01,09,06,45,3.30
2014,01,09,06,46,3.30
2014,01,09,06,47,3.30
2014,01,09,06,48,3.30
2014,01,09,06,49,3.30
2014,01,09,06,50,3.30
2014,01,09,06,51,3.30
2014,01,09,06,52,3.30
2014,01,09,06,53,3.20
2014,01,09,06,54,3.20
2014,01,09,06,55,3.20
2014,01,09,06,56,3.10
2014,01,09,06,57,3.10
2014,01,09,06,58,3.10
2014,01,09,06,59,3.10
2014,01,09,07,00,3.10
2014,01,09,07,01,3.00
2014,01,09,07,02,3.00
2014,01,09,07,03,3.00
2014,01,09,07,04,3.00
2014,01,09,07,05,2.90
2014,01,09,07,06,2.90
2014,01,09,07,07,2.90
2014,01,09,07,08,2.90
2014,01,09,07,09,2.90
2014,01,09,07,10,2.80
2014,01,09,07,11,2.80
2014,01,09,07,12,2.80
2014,01,09,07,13,2.80
2014,01,09,07,14,2.80
2014,01,09,07,15,2.80
2014,01,09,07,16,2.80
2014,01,09,07,17,2.80
2014,01,09,07,18,2.80
2014,01,09,07,19,2.70
2014,01,09,07,20,2.70
2014,01,09,07,21,2.70
2014,01,09,07,22,2.70
2014,01,09,07,23,2.70
2014,01,09,07,24,2.70
2014,01,09,07,25,2.70
2014,01,09,07,26,2.70
2014,01,09,07,27,2.70
2014,01,09,07,28,2.60
2014,01,09,07,29,2.60
2014,01,09,07,30,2.60
2014,01,09,07,31,2.60
2014,01,09,07,32,2.60
2014,01,09,07,33,2.60
2014,01,09,07,34,2.60
2014,01,09,07,35,2.60
2014,01,09,07,36,2.50
2014,01,09,07,37,2.50
2014,01,09,07,38,2.50
2014,01,09,07,39,2.50
2014,01,09,07,40,2.50
2014,01,09,07,41,2.50
2014,01,09,07,42,2.50
2014,01,09,07,43,2.50
2014,01,09,07,44,2.40
2014,01,09,07,45,2.40
2014,01,09,07,46,2.40
2014,01,09,07,47,2.40
2014,01,09,07,48,2.40
2014,01,09,07,49,2.40
2014,01,09,07,50,2.40
2014,01,09,07,51,2.40
2014,01,09,07,52,2.40
2014,01,09,07,53,2.40
2014,01,09,07,54,2.40
2014,01,09,07,55,2.40
2014,01,09,07,56,2.40
2014,01,09,07,57,2.40
2014,01,09,07,58,2.40
2014,01,09,07,59,2.40
2014,01,09,08,00,2.40
2014,01,09,08,01,2.40
2014,01,09,08,02,2.30
2014,01,09,08,03,2.30
2014,01,09,08,04,2.30
2014,01,09,08,05,2.30
2014,01,09,08,06,2.30
2014,01,09,08,07,2.30
2014,01,09,08,08,2.30
2014,01,09,08,09,2.40
2014,01,09,08,10,2.40
2014,01,09,08,11,2.40
2014,01,09,08,12,2.40
2014,01,09,08,13,2.40
2014,01,09,08,14,2.40
2014,01,09,08,15,2.40
2014,01,09,08,16,2.40
2014,01,09,08,17,2.50
2014,01,09,08,18,2.50
2014,01,09,08,19,2.50
2014,01,09,08,20,2.50
2014,01,09,08,21,2.60
2014,01,09,08,22,2.60
2014,01,09,08,23,2.60
2014,01,09,08,24,2.60
2014,01,09,08,25,2.60
2014,01,09,08,26,2.60
2014,01,09,08,27,2.60
2014,01,09,08,28,2.60
2014,01,09,08,29,2.70
2014,01,09,08,30,2.70
2014,01,09,08,31,2.70
2014,01,09,08,32,2.70
2014,01,09,08,33,2.80
2014,01,09,08,34,2.80
2014,01,09,08,35,2.80
2014,01,09,08,36,2.90
2014,01,09,08,37,3.00
2014,01,09,08,38,3.00
2014,01,09,08,39,3.10
2014,01,09,08,40,3.10
2014,01,09,08,41,3.20
2014,01,09,08,42,3.20
2014,01,09,08,43,3.30
2014,01,09,08,44,3.40
2014,01,09,08,45,3.40
2014,01,09,08,46,3.50
2014,01,09,08,47,3.50
2014,01,09,08,48,3.60
2014,01,09,08,49,3.60
2014,01,09,08,50,3.70
2014,01,09,08,51,3.70
2014,01,09,08,52,3.80
2014,01,09,08,53,3.80
2014,01,09,08,54,3.90
2014,01,09,08,55,3.90
2014,01,09,08,56,4.00
2014,01,09,08,57,4.00
2014,01,09,08,58,4.00
2014,01,09,08,59,4.10
2014,01,09,09,03,4.30
2014,01,09,09,04,4.30
2014,01,09,09,05,4.30
2014,01,09,09,06,4.30
2014,01,09,09,07,4.40
2014,01,09,09,08,4.40
2014,01,09,09,09,4.40
2014,01,09,09,10,4.40
2014,01,09,09,11,4.50
2014,01,09,09,12,4.50
2014,01,09,09,13,4.50
2014,01,09,09,14,4.50
2014,01,09,09,15,4.60
2014,01,09,09,16,4.60
2014,01,09,09,17,4.60
2014,01,09,09,18,4.70
2014,01,09,09,19,4.70
2014,01,09,09,20,4.80
2014,01,09,09,21,4.80
2014,01,09,09,22,4.90
2014,01,09,09,23,4.90
2014,01,09,09,24,5.00
2014,01,09,09,25,5.10
2014,01,09,09,30,5.20
2014,01,09,09,31,5.20
2014,01,09,09,32,5.20
2014,01,09,09,33,5.20
2014,01,09,09,34,5.20
2014,01,09,09,35,5.20
2014,01,09,09,36,5.10
2014,01,09,09,37,5.10
2014,01,09,09,38,5.10
2014,01,09,09,39,5.10
2014,01,09,09,40,5.10
2014,01,09,09,41,5.10
2014,01,09,09,42,5.10
2014,01,09,09,43,5.10
2014,01,09,09,44,5.10
2014,01,09,09,45,5.10
2014,01,09,09,46,5.10
2014,01,09,09,47,5.10
2014,01,09,09,48,5.10
2014,01,09,09,49,5.10
2014,01,09,09,50,5.10
2014,01,09,09,51,5.10
2014,01,09,09,52,5.20
2014,01,09,09,53,5.20
2014,01,09,09,54,5.20
2014,01,09,09,55,5.20
2014,01,09,09,56,5.20
2014,01,09,09,57,5.20
2014,01,09,09,58,5.30
2014,01,09,09,59,5.30
2014,01,09,10,00,5.30
2014,01,09,10,01,5.40
2014,01,09,10,02,5.40
2014,01,09,10,03,5.40
2014,01,09,10,04,5.40
2014,01,09,10,05,5.40
2014,01,09,10,06,5.50
2014,01,09,10,07,5.50
2014,01,09,10,08,5.60
2014,01,09,10,09,5.60
2014,01,09,10,10,5.70
2014,01,09,10,11,5.70
2014,01,09,10,12,5.80
2014,01,09,10,13,5.80
2014,01,09,10,14,5.80
2014,01,09,10,15,5.80
2014,01,09,10,16,5.90
2014,01,09,10,17,5.90
2014,01,09,10,18,6.00
2014,01,09,10,19,6.10
2014,01,09,10,20,6.10
2014,01,09,10,21,6.20
2014,01,09,10,22,6.20
2014,01,09,10,23,6.20
2014,01,09,10,24,6.20
2014,01,09,10,25,6.20
2014,01,09,10,26,6.20
2014,01,09,10,27,6.20
2014,01,09,10,28,6.20
2014,01,09,10,29,6.20
2014,01,09,10,30,6.20
2014,01,09,10,31,6.20
2014,01,09,10,32,6.20
2014,01,09,10,33,6.20
2014,01,09,10,34,6.20
2014,01,09,10,35,6.10
2014,01,09,10,36,6.10
2014,01,09,10,37,6.10
2014,01,09,10,38,6.10
2014,01,09,10,39,6.10
2014,01,09,10,40,6.10
2014,01,09,10,41,6.00
2014,01,09,10,42,6.00
2014,01,09,10,43,6.00
2014,01,09,10,44,6.00
2014,01,09,10,45,6.00
2014,01,09,10,46,5.90
2014,01,09,10,47,5.90
2014,01,09,10,48,5.90
2014,01,09,10,49,5.90
2014,01,09,10,50,5.90
2014,01,09,10,51,5.90
2014,01,09,10,52,5.90
2014,01,09,10,53,5.90
2014,01,09,10,54,5.90
2014,01,09,10,55,5.90
2014,01,09,10,56,5.90
2014,01,09,10,57,5.90
2014,01,09,10,58,5.90
2014,01,09,10,59,5.90
2014,01,09,11,00,5.90
2014,01,09,11,01,5.90
2014,01,09,11,02,5.90
2014,01,09,11,03,5.90
2014,01,09,11,04,5.90
2014,01,09,11,05,5.90
2014,01,09,11,06,5.90
2014,01,09,11,07,5.90
2014,01,09,11,08,5.90
2014,01,09,11,09,5.90
2014,01,09,11,10,5.90
2014,01,09,11,11,5.90
2014,01,09,11,12,5.80
2014,01,09,11,13,5.80
2014,01,09,11,14,5.80
2014,01,09,11,15,5.80
2014,01,09,11,16,5.80
2014,01,09,11,17,5.80
2014,01,09,11,18,5.80
2014,01,09,11,19,5.80
2014,01,09,11,20,5.80
2014,01,09,11,21,5.80
2014,01,09,11,22,5.80
2014,01,09,11,23,5.80
2014,01,09,11,24,5.80
2014,01,09,11,25,5.80
2014,01,09,11,26,5.80
2014,01,09,11,27,5.80
2014,01,09,11,28,5.80
2014,01,09,11,29,5.80
2014,01,09,11,30,5.80
2014,01,09,11,31,5.80
2014,01,09,11,32,5.80
2014,01,09,11,33,5.80
2014,01,09,11,34,5.70
2014,01,09,11,35,5.70
2014,01,09,11,36,5.70
2014,01,09,11,37,5.70
2014,01,09,11,38,5.70
2014,01,09,11,39,5.70
2014,01,09,11,40,5.70
2014,01,09,11,41,5.70
2014,01,09,11,42,5.70
2014,01,09,11,43,5.70
2014,01,09,11,44,5.70
2014,01,09,11,45,5.70
2014,01,09,11,46,5.70
2014,01,09,11,47,5.70
2014,01,09,11,48,5.70
2014,01,09,11,49,5.70
2014,01,09,11,50,5.70
2014,01,09,11,51,5.70
2014,01,09,11,52,5.70
2014,01,09,11,53,5.70
2014,01,09,11,54,5.70
2014,01,09,11,55,5.70
2014,01,09,11,56,5.70
2014,01,09,11,57,5.70
2014,01,09,11,58,5.70
2014,01,09,11,59,5.70
2014,01,09,12,00,5.70
2014,01,09,12,01,5.70
2014,01,09,12,02,5.60
2014,01,09,12,03,5.60
2014,01,09,12,04,5.60
2014,01,09,12,05,5.60
2014,01,09,12,06,5.60
2014,01,09,12,07,5.60
2014,01,09,12,08,5.60
2014,01,09,12,09,5.60
2014,01,09,12,10,5.60
2014,01,09,12,11,5.60
2014,01,09,12,12,5.60
2014,01,09,12,13,5.60
2014,01,09,12,14,5.60
2014,01,09,12,15,5.60
2014,01,09,12,16,5.60
2014,01,09,12,17,5.60
2014,01,09,12,18,5.60
2014,01,09,12,19,5.60
2014,01,09,12,20,5.60
2014,01,09,12,21,5.50
2014,01,09,12,22,5.50
2014,01,09,12,23,5.50
2014,01,09,12,24,5.50
2014,01,09,12,25,5.50
2014,01,09,12,26,5.50
2014,01,09,12,27,5.50
2014,01,09,12,28,5.50
2014,01,09,12,29,5.50
2014,01,09,12,30,5.50
2014,01,09,12,31,5.50
2014,01,09,12,32,5.50
2014,01,09,12,33,5.40
2014,01,09,12,34,5.40
2014,01,09,12,35,5.40
2014,01,09,12,36,5.40
2014,01,09,12,37,5.40
2014,01,09,12,38,5.40
2014,01,09,12,39,5.40
2014,01,09,12,40,5.40
2014,01,09,12,41,5.40
2014,01,09,12,42,5.30
2014,01,09,12,43,5.30
2014,01,09,12,44,5.30
2014,01,09,12,45,5.30
2014,01,09,12,46,5.30
2014,01,09,12,47,5.30
2014,01,09,12,48,5.30
2014,01,09,12,49,5.20
2014,01,09,12,50,5.20
2014,01,09,12,51,5.20
2014,01,09,12,52,5.20
2014,01,09,12,53,5.20
2014,01,09,12,54,5.20
2014,01,09,12,55,5.10
2014,01,09,12,56,5.10
2014,01,09,12,57,5.10
2014,01,09,12,58,5.10
2014,01,09,12,59,5.10
2014,01,09,13,00,5.00
2014,01,09,13,01,5.00
2014,01,09,13,02,5.00
2014,01,09,13,03,5.00
2014,01,09,13,04,4.90
2014,01,09,13,05,4.90
2014,01,09,13,06,4.90
2014,01,09,13,07,4.90
2014,01,09,13,08,4.90
2014,01,09,13,09,4.90
2014,01,09,13,10,4.80
2014,01,09,13,11,4.80
2014,01,09,13,12,4.80
2014,01,09,13,13,4.80
2014,01,09,13,14,4.80
2014,01,09,13,15,4.80
2014,01,09,13,16,4.80
2014,01,09,13,17,4.80
2014,01,09,13,18,4.80
2014,01,09,13,19,4.70
2014,01,09,13,20,4.70
2014,01,09,13,21,4.70
2014,01,09,13,22,4.70
2014,01,09,13,23,4.70
2014,01,09,13,24,4.70
2014,01,09,13,25,4.70
2014,01,09,13,26,4.70
2014,01,09,13,27,4.70
2014,01,09,13,28,4.70
2014,01,09,13,29,4.60
2014,01,09,13,30,4.60
2014,01,09,13,31,4.60
2014,01,09,13,32,4.60
2014,01,09,13,33,4.60
2014,01,09,13,34,4.60
2014,01,09,13,35,4.60
2014,01,09,13,36,4.60
2014,01,09,13,37,4.50
2014,01,09,13,38,4.50
2014,01,09,13,39,4.50
2014,01,09,13,40,4.50
2014,01,09,13,41,4.40
2014,01,09,13,42,4.40
2014,01,09,13,43,4.40
2014,01,09,13,44,4.40
2014,01,09,13,45,4.40
2014,01,09,13,46,4.30
2014,01,09,13,47,4.30
2014,01,09,13,48,4.30
2014,01,09,13,49,4.30
2014,01,09,13,50,4.30
2014,01,09,13,51,4.30
2014,01,09,13,52,4.30
2014,01,09,13,53,4.20
2014,01,09,13,54,4.20
2014,01,09,13,55,4.20
2014,01,09,13,56,4.20
2014,01,09,13,57,4.20
2014,01,09,13,58,4.20
2014,01,09,13,59,4.20
2014,01,09,14,00,4.20
2014,01,09,14,01,4.20
2014,01,09,14,02,4.20
2014,01,09,14,03,4.20
2014,01,09,14,04,4.20
2014,01,09,14,05,4.20
2014,01,09,14,06,4.20
2014,01,09,14,07,4.20
2014,01,09,14,08,4.10
2014,01,09,14,09,4.10
2014,01,09,14,10,4.10
2014,01,09,14,11,4.10
2014,01,09,14,12,4.10
2014,01,09,14,13,4.10
2014,01,09,14,14,4.10
2014,01,09,14,15,4.10
2014,01,09,14,16,4.10
2014,01,09,14,17,4.10
2014,01,09,14,18,4.10
2014,01,09,14,19,4.10
2014,01,09,14,20,4.10
2014,01,09,14,21,4.00
2014,01,09,14,22,4.00
2014,01,09,14,23,4.00
2014,01,09,14,24,4.00
2014,01,09,14,25,4.00
2014,01,09,14,26,3.90
2014,01,09,14,27,3.90
2014,01,09,14,28,3.90
2014,01,09,14,29,3.90
2014,01,09,14,30,3.90
2014,01,09,14,31,3.90
2014,01,09,14,32,3.90
2014,01,09,14,33,3.90
2014,01,09,14,34,3.90
2014,01,09,14,35,3.90
2014,01,09,14,36,3.90
2014,01,09,14,37,3.90
2014,01,09,14,38,3.80
2014,01,09,14,39,3.80
2014,01,09,14,40,3.80
2014,01,09,14,41,3.80
2014,01,09,14,42,3.80
2014,01,09,14,43,3.80
2014,01,09,14,44,3.70
2014,01,09,14,45,3.70
2014,01,09,14,46,3.70
2014,01,09,14,47,3.70
2014,01,09,14,48,3.70
2014,01,09,14,49,3.70
2014,01,09,14,50,3.60
2014,01,09,14,51,3.60
2014,01,09,14,52,3.60
2014,01,09,14,53,3.60
2014,01,09,14,54,3.50
2014,01,09,14,55,3.50
2014,01,09,14,56,3.50
2014,01,09,14,57,3.50
2014,01,09,14,58,3.40
2014,01,09,14,59,3.40
2014,01,09,15,00,3.40
2014,01,09,15,01,3.30
2014,01,09,15,02,3.30
2014,01,09,15,03,3.30
2014,01,09,15,04,3.30
2014,01,09,15,05,3.30
2014,01,09,15,06,3.30
2014,01,09,15,07,3.30
2014,01,09,15,08,3.20
2014,01,09,15,09,3.20
2014,01,09,15,10,3.20
2014,01,09,15,11,3.20
2014,01,09,15,12,3.20
2014,01,09,15,13,3.20
2014,01,09,15,14,3.20
2014,01,09,15,15,3.20
2014,01,09,15,16,3.20
2014,01,09,15,17,3.20
2014,01,09,15,18,3.20
2014,01,09,15,19,3.20
2014,01,09,15,20,3.20
2014,01,09,15,21,3.20
2014,01,09,15,22,3.20
2014,01,09,15,23,3.10
2014,01,09,15,24,3.10
2014,01,09,15,25,3.10
2014,01,09,15,26,3.10
2014,01,09,15,27,3.10
2014,01,09,15,28,3.10
2014,01,09,15,29,3.10
2014,01,09,15,30,3.10
2014,01,09,15,31,3.10
2014,01,09,15,32,3.00
2014,01,09,15,33,3.00
2014,01,09,15,34,3.00
2014,01,09,15,35,3.00
2014,01,09,15,36,2.90
2014,01,09,15,37,2.90
2014,01,09,15,38,2.90
2014,01,09,15,39,2.90
2014,01,09,15,40,2.90
2014,01,09,15,41,2.90
2014,01,09,15,42,2.90
2014,01,09,15,43,2.90
2014,01,09,15,44,2.90
2014,01,09,15,45,2.90
2014,01,09,15,46,3.00
2014,01,09,15,47,3.00
2014,01,09,15,48,3.00
2014,01,09,15,49,3.00
2014,01,09,15,50,3.00
2014,01,09,15,51,3.00
2014,01,09,15,52,3.00
2014,01,09,15,53,3.00
2014,01,09,15,54,3.00
2014,01,09,15,55,3.00
2014,01,09,15,56,3.00
2014,01,09,15,57,3.00
2014,01,09,15,58,3.00
2014,01,09,15,59,3.10
2014,01,09,16,00,3.10
2014,01,09,16,01,3.10
2014,01,09,16,02,3.10
2014,01,09,16,03,3.10
2014,01,09,16,04,3.10
2014,01,09,16,05,3.10
2014,01,09,16,06,3.10
2014,01,09,16,07,3.10
2014,01,09,16,08,3.10
2014,01,09,16,09,3.10
2014,01,09,16,10,3.10
2014,01,09,16,11,3.10
2014,01,09,16,12,3.10
2014,01,09,16,13,3.10
2014,01,09,16,14,3.10
2014,01,09,16,15,3.10
2014,01,09,16,16,3.10
2014,01,09,16,17,3.10
2014,01,09,16,18,3.10
2014,01,09,16,19,3.10
2014,01,09,16,20,3.10
2014,01,09,16,21,3.10
2014,01,09,16,22,3.10
2014,01,09,16,23,3.10
2014,01,09,16,24,3.10
2014,01,09,16,25,3.10
2014,01,09,16,26,3.20
2014,01,09,16,27,3.20
2014,01,09,16,28,3.20
2014,01,09,16,29,3.20
2014,01,09,16,30,3.20
2014,01,09,16,31,3.20
2014,01,09,16,32,3.20
2014,01,09,16,33,3.20
2014,01,09,16,34,3.20
2014,01,09,16,35,3.10
2014,01,09,16,36,3.10
2014,01,09,16,37,3.10
2014,01,09,16,38,3.10
2014,01,09,16,39,3.10
2014,01,09,16,40,3.00
2014,01,09,16,41,3.00
2014,01,09,16,42,3.00
2014,01,09,16,43,3.00
2014,01,09,16,44,2.90
2014,01,09,16,45,2.90
2014,01,09,16,46,2.90
2014,01,09,16,47,2.90
2014,01,09,16,48,2.90
2014,01,09,16,49,2.90
2014,01,09,16,50,2.90
2014,01,09,16,51,2.90
2014,01,09,16,52,2.90
2014,01,09,16,53,2.90
2014,01,09,16,54,2.90
2014,01,09,16,55,2.90
2014,01,09,16,56,2.90
2014,01,09,16,57,2.90
2014,01,09,16,58,2.90
2014,01,09,16,59,2.90
2014,01,09,17,00,2.80
2014,01,09,17,01,2.80
2014,01,09,17,02,2.80
2014,01,09,17,03,2.80
2014,01,09,17,04,2.80
2014,01,09,17,05,2.90
2014,01,09,17,06,2.80
2014,01,09,17,07,2.90
2014,01,09,17,08,2.90
2014,01,09,17,09,2.90
2014,01,09,17,10,2.90
2014,01,09,17,11,2.90
2014,01,09,17,12,2.90
2014,01,09,17,13,2.90
2014,01,09,17,14,2.90
2014,01,09,17,15,2.90
2014,01,09,17,16,2.90
2014,01,09,17,17,2.90
2014,01,09,17,18,2.90
2014,01,09,17,19,3.00
2014,01,09,17,20,3.00
2014,01,09,17,21,3.00
2014,01,09,17,22,3.00
2014,01,09,17,23,3.00
2014,01,09,17,24,3.00
2014,01,09,17,25,3.00
2014,01,09,17,26,3.10
2014,01,09,17,27,3.10
2014,01,09,17,28,3.10
2014,01,09,17,29,3.10
2014,01,09,17,30,3.10
2014,01,09,17,31,3.10
2014,01,09,17,32,3.10
2014,01,09,17,33,3.10
2014,01,09,17,34,3.10
2014,01,09,17,35,3.10
2014,01,09,17,36,3.10
2014,01,09,17,37,3.10
2014,01,09,17,38,3.10
2014,01,09,17,39,3.10
2014,01,09,17,40,3.10
2014,01,09,17,41,3.10
2014,01,09,17,42,3.20
2014,01,09,17,43,3.20
2014,01,09,17,44,3.20
2014,01,09,17,45,3.20
2014,01,09,17,46,3.20
2014,01,09,17,47,3.20
2014,01,09,17,48,3.20
2014,01,09,17,49,3.30
2014,01,09,17,50,3.30
2014,01,09,17,51,3.30
2014,01,09,17,52,3.30
2014,01,09,17,53,3.30
2014,01,09,17,54,3.30
2014,01,09,17,55,3.20
2014,01,09,17,56,3.20
2014,01,09,17,57,3.20
2014,01,09,17,58,3.20
2014,01,09,17,59,3.20
2014,01,09,18,00,3.20
2014,01,09,18,01,3.20
2014,01,09,18,02,3.20
2014,01,09,18,03,3.20
2014,01,09,18,04,3.20
2014,01,09,18,05,3.20
2014,01,09,18,06,3.20
2014,01,09,18,07,3.20
2014,01,09,18,08,3.20
2014,01,09,18,09,3.20
2014,01,09,18,10,3.20
2014,01,09,18,11,3.20
2014,01,09,18,12,3.20
2014,01,09,18,13,3.20